TimeEST,TemperatureF,Dew PointF,Humidity,Sea Level PressureIn,VisibilityMPH,Wind Direction,Wind SpeedMPH,Gust SpeedMPH,PrecipitationIn,Events,Conditions,WindDirDegrees,DateUTC
12:15 AM,24.8,15.8,69,30.12,10.0,North,3.5,-,N/A,,Scattered Clouds,350,2013-02-21 05:15:00
12:35 AM,23.0,15.8,74,30.12,10.0,Calm,Calm,-,N/A,,Clear,0,2013-02-21 05:35:00
12:55 AM,23.0,17.6,80,30.13,10.0,Calm,Calm,-,N/A,,Clear,0,2013-02-21 05:55:00
1:15 AM,23.0,17.6,80,30.13,10.0,North,3.5,-,N/A,,Clear,350,2013-02-21 06:15:00
1:35 AM,23.0,17.6,80,30.14,10.0,Calm,Calm,-,N/A,,Clear,0,2013-02-21 06:35:00
1:55 AM,23.0,17.6,80,30.14,10.0,Calm,Calm,-,N/A,,Clear,0,2013-02-21 06:55:00
2:15 AM,23.0,15.8,74,30.14,10.0,Calm,Calm,-,N/A,,Clear,0,2013-02-21 07:15:00
2:35 AM,23.0,17.6,80,30.14,10.0,Calm,Calm,-,N/A,,Clear,0,2013-02-21 07:35:00
2:55 AM,23.0,17.6,80,30.14,10.0,Calm,Calm,-,N/A,,Clear,0,2013-02-21 07:55:00
3:15 AM,23.0,17.6,80,30.14,10.0,Calm,Calm,-,N/A,,Clear,0,2013-02-21 08:15:00
3:35 AM,23.0,17.6,80,30.13,10.0,Calm,Calm,-,N/A,,Clear,0,2013-02-21 08:35:00
3:55 AM,21.2,15.8,80,30.13,10.0,Calm,Calm,-,N/A,,Clear,0,2013-02-21 08:55:00
4:15 AM,21.2,15.8,80,30.13,10.0,Calm,Calm,-,N/A,,Clear,0,2013-02-21 09:15:00
4:35 AM,21.2,15.8,80,30.13,10.0,Calm,Calm,-,N/A,,Clear,0,2013-02-21 09:35:00
4:55 AM,21.2,15.8,80,30.14,10.0,Calm,Calm,-,N/A,,Clear,0,2013-02-21 09:55:00
5:15 AM,21.2,15.8,80,30.14,10.0,Calm,Calm,-,N/A,,Clear,0,2013-02-21 10:15:00
5:35 AM,21.2,17.6,86,30.15,10.0,Calm,Calm,-,N/A,,Clear,0,2013-02-21 10:35:00
5:55 AM,21.2,17.6,86,30.16,10.0,Calm,Calm,-,N/A,,Clear,0,2013-02-21 10:55:00
6:15 AM,21.2,15.8,80,30.15,10.0,North,4.6,-,N/A,,Clear,10,2013-02-21 11:15:00
6:55 AM,19.4,15.8,86,30.16,10.0,Calm,Calm,-,N/A,,Clear,0,2013-02-21 11:55:00
7:15 AM,19.4,15.8,86,30.16,7.0,Calm,Calm,-,N/A,,Clear,0,2013-02-21 12:15:00
7:35 AM,19.4,15.8,86,30.17,10.0,Calm,Calm,-,N/A,,Clear,0,2013-02-21 12:35:00
7:55 AM,19.4,17.6,93,30.17,10.0,NNE,3.5,-,N/A,,Clear,30,2013-02-21 12:55:00
8:15 AM,23.0,17.6,80,30.18,7.0,NNE,3.5,-,N/A,,Clear,30,2013-02-21 13:15:00
8:35 AM,23.0,17.6,80,30.19,4.0,Calm,Calm,-,N/A,,Haze,0,2013-02-21 13:35:00
8:55 AM,26.6,17.6,69,30.19,3.0,Calm,Calm,-,N/A,,Haze,0,2013-02-21 13:55:00
9:15 AM,26.6,19.4,74,30.19,3.0,North,4.6,-,N/A,,Haze,10,2013-02-21 14:15:00
9:35 AM,26.6,19.4,74,30.19,3.0,NNE,3.5,-,N/A,,Haze,30,2013-02-21 14:35:00
9:55 AM,28.4,19.4,69,30.19,4.0,NE,4.6,-,N/A,,Haze,40,2013-02-21 14:55:00
10:15 AM,28.4,19.4,69,30.19,3.0,Calm,Calm,-,N/A,,Haze,0,2013-02-21 15:15:00
10:35 AM,32.0,19.4,60,30.19,3.0,Calm,Calm,-,N/A,,Haze,0,2013-02-21 15:35:00
10:55 AM,32.0,17.6,55,30.18,3.0,ENE,3.5,-,N/A,,Haze,70,2013-02-21 15:55:00
11:15 AM,33.8,17.6,52,30.18,4.0,Calm,Calm,-,N/A,,Haze,0,2013-02-21 16:15:00
11:35 AM,33.8,17.6,52,30.16,3.0,North,3.5,-,N/A,,Haze,360,2013-02-21 16:35:00
11:55 AM,35.6,17.6,48,30.16,3.0,NE,4.6,-,N/A,,Haze,40,2013-02-21 16:55:00
12:15 PM,37.4,19.4,48,30.15,5.0,Calm,Calm,-,N/A,,Haze,0,2013-02-21 17:15:00
12:35 PM,37.4,19.4,48,30.14,7.0,Calm,Calm,-,N/A,,Clear,0,2013-02-21 17:35:00
12:55 PM,39.2,19.4,45,30.14,4.0,NNE,4.6,-,N/A,,Haze,20,2013-02-21 17:55:00
1:15 PM,41.0,19.4,42,30.11,7.0,North,4.6,-,N/A,,Clear,360,2013-02-21 18:15:00
1:35 PM,41.0,19.4,42,30.11,4.0,North,4.6,-,N/A,,Haze,350,2013-02-21 18:35:00
1:55 PM,42.8,19.4,39,30.10,5.0,North,5.8,-,N/A,,Haze,360,2013-02-21 18:55:00
2:15 PM,42.8,19.4,39,30.11,7.0,Calm,Calm,-,N/A,,Clear,0,2013-02-21 19:15:00
2:35 PM,44.6,19.4,37,30.12,7.0,NE,3.5,-,N/A,,Clear,50,2013-02-21 19:35:00
2:55 PM,42.8,19.4,39,30.09,7.0,NNE,5.8,-,N/A,,Clear,20,2013-02-21 19:55:00
3:15 PM,42.8,19.4,39,30.10,10.0,North,3.5,-,N/A,,Clear,10,2013-02-21 20:15:00
3:35 PM,42.8,19.4,39,30.10,5.0,NNE,5.8,-,N/A,,Haze,20,2013-02-21 20:35:00
3:55 PM,42.8,19.4,39,30.10,10.0,NNE,6.9,-,N/A,,Clear,20,2013-02-21 20:55:00
4:15 PM,42.8,19.4,39,30.09,10.0,NE,4.6,-,N/A,,Clear,40,2013-02-21 21:15:00
4:35 PM,42.8,19.4,39,30.09,10.0,NE,3.5,-,N/A,,Clear,50,2013-02-21 21:35:00
4:55 PM,42.8,19.4,39,30.09,7.0,NE,3.5,-,N/A,,Clear,50,2013-02-21 21:55:00
5:15 PM,41.0,17.6,39,30.08,10.0,NE,4.6,-,N/A,,Clear,40,2013-02-21 22:15:00
5:35 PM,41.0,17.6,39,30.07,10.0,Calm,Calm,-,N/A,,Clear,0,2013-02-21 22:35:00
5:55 PM,41.0,17.6,39,30.08,7.0,Calm,Calm,-,N/A,,Clear,0,2013-02-21 22:55:00
6:15 PM,41.0,19.4,42,30.08,7.0,NE,4.6,-,N/A,,Clear,50,2013-02-21 23:15:00
6:35 PM,39.2,19.4,45,30.08,7.0,Calm,Calm,-,N/A,,Clear,0,2013-02-21 23:35:00
6:55 PM,39.2,19.4,45,30.07,7.0,NE,4.6,-,N/A,,Clear,50,2013-02-21 23:55:00
7:15 PM,37.4,19.4,48,30.07,7.0,Calm,Calm,-,N/A,,Clear,0,2013-02-22 00:15:00
7:35 PM,37.4,19.4,48,30.06,7.0,NE,3.5,-,N/A,,Clear,50,2013-02-22 00:35:00
7:55 PM,37.4,19.4,48,30.07,7.0,NNE,3.5,-,N/A,,Clear,30,2013-02-22 00:55:00
8:15 PM,37.4,19.4,48,30.05,7.0,NE,4.6,-,N/A,,Clear,40,2013-02-22 01:15:00
8:35 PM,37.4,19.4,48,30.05,7.0,Calm,Calm,-,N/A,,Clear,0,2013-02-22 01:35:00
8:55 PM,37.4,21.2,52,30.07,7.0,Calm,Calm,-,N/A,,Mostly Cloudy,0,2013-02-22 01:55:00
9:15 PM,37.4,21.2,52,30.07,7.0,Calm,Calm,-,N/A,,Overcast,0,2013-02-22 02:15:00
9:35 PM,35.6,23.0,60,30.07,7.0,Calm,Calm,-,N/A,,Overcast,0,2013-02-22 02:35:00
9:55 PM,35.6,28.4,75,30.08,10.0,SSW,3.5,-,N/A,Rain,Light Rain,200,2013-02-22 02:55:00
10:15 PM,37.4,30.2,75,30.09,7.0,South,3.5,-,N/A,Rain,Light Rain,190,2013-02-22 03:15:00
10:35 PM,35.6,30.2,81,30.07,7.0,SSE,6.9,-,0.01,Rain,Light Rain,160,2013-02-22 03:35:00
10:55 PM,37.4,30.2,75,30.09,7.0,South,4.6,-,0.02,Rain,Light Rain,170,2013-02-22 03:55:00
11:15 PM,39.2,32.0,75,30.10,5.0,SSE,5.8,-,0.01,Rain,Rain,150,2013-02-22 04:15:00
11:35 PM,37.4,32.0,81,30.10,4.0,South,3.5,-,0.04,Rain,Rain,180,2013-02-22 04:35:00
11:55 PM,37.4,33.8,87,30.09,7.0,SSE,3.5,-,0.05,Rain,Light Rain,160,2013-02-22 04:55:00